Home   Weather   Dortmund   Past weeks

Flag for Germany Past Weather in Dortmund, North Rhine-Westphalia, Germany — Yesterday and Last 2 Weeks

Now
28 °F

Clear.


Feels Like: 28 °F
Forecast: 22 / 35 °F
Wind: 2 mph from Northeast

Location: Dortmund / Wickede

Current Time: Jan 20, 2017 at 11:16:59 pm

Latest Report: Jan 20, 2017 at 9:50 pm


Visibility: 10 mi

Pressure: 30.48 "Hg

Humidity: 74%

Dew Point: 21 °F

Location of DortmundLocation

Past Weather in Dortmund — Graph

°F

Dortmund Temperature Yesterday

Maximum temperature yesterday: 34 °F (at 1:50 pm)
Minimum temperature yesterday: 19 °F (at 1:20 am)
Average temperature yesterday: 26 °F

High & Low Weather Summary for the Past Weeks

 TemperatureHumidityPressure
High43 °F (Jan 11, 2:20 pm)100% (Jan 8, 6:20 am)30.72 "Hg (Jan 8, 6:20 am)
Low16 °F (Jan 6, 5:20 am)41% (Jan 20, 2:20 pm)29.06 "Hg (Jan 13, 5:20 am)
Average31 °F81%30.20 "Hg
* Reported Jan 5 9:20 pm — Jan 20 9:50 pm, Dortmund, Weather by CustomWeather, © 2017

Note: Actual official high and low records may vary slightly from our data, if they occured in-between our weather recording intervals... More about our weather records

Advertising

Dortmund Weather History for the Previous 24 Hours

Scroll right to see more
 ConditionsComfort  
Time TempWeatherWind HumidityBarometerVisibility
9:50 pm
Fri, Jan 20
28 °FClear.2 mph74%30.48 "Hg10 mi
9:20 pm28 °FClear.2 mph69%30.51 "Hg10 mi
8:50 pm30 °FClear.3 mph69%30.51 "Hg10 mi
8:20 pm30 °FClear.3 mph69%30.51 "Hg10 mi
7:50 pm30 °FClear.5 mph69%30.51 "Hg10 mi
7:20 pm32 °FClear.5 mph64%30.51 "Hg10 mi
6:50 pm32 °FClear.5 mph64%30.51 "Hg10 mi
6:20 pm32 °FClear.5 mph60%30.51 "Hg10 mi
5:50 pm32 °FClear.3 mph60%30.51 "Hg10 mi
5:20 pm34 °FClear.5 mph56%30.51 "Hg10 mi
4:50 pm34 °FSunny.7 mph56%30.51 "Hg10 mi
4:20 pm36 °FSunny.6 mph48%30.51 "Hg10 mi
3:50 pm36 °FPassing clouds.6 mph48%30.51 "HgN/A
3:20 pm36 °FSunny.7 mph44%30.51 "Hg10 mi
2:50 pm36 °FPassing clouds.6 mph41%30.51 "HgN/A
2:20 pm36 °FSunny.6 mph41%30.51 "Hg10 mi
1:50 pm36 °FSunny.5 mph52%30.51 "Hg10 mi
1:20 pm34 °FPassing clouds.5 mph56%30.54 "HgN/A
12:50 pm34 °FSunny.2 mph56%30.54 "Hg10 mi
12:20 pm32 °FPassing clouds.5 mph64%30.54 "HgN/A
11:50 am32 °FPassing clouds.2 mph64%30.54 "HgN/A
11:20 am30 °FScattered clouds.3 mph69%30.57 "HgN/A
10:50 am28 °FScattered clouds.2 mph74%30.57 "HgN/A
10:20 am30 °FSunny.No wind64%30.54 "Hg10 mi
9:50 am28 °FPassing clouds.3 mph59%30.54 "HgN/A
9:20 am25 °FPassing clouds.5 mph63%30.57 "HgN/A
8:50 am23 °FPassing clouds.7 mph68%30.54 "HgN/A
8:20 am23 °FPassing clouds.5 mph68%30.54 "HgN/A
7:50 am19 °FClear.3 mph73%30.54 "Hg10 mi
7:20 am23 °FClear.3 mph68%30.54 "Hg10 mi
6:50 am23 °FClear.5 mph68%30.57 "Hg10 mi
6:20 am21 °FClear.3 mph74%30.54 "Hg10 mi
5:50 am19 °FClear.No wind79%30.54 "Hg10 mi
5:20 am21 °FClear.3 mph74%30.57 "Hg10 mi
Weather by CustomWeather, © 2017

See weather overviewHow to use our weather pages